www.pogodaiklimat.ru

Погода и климат >> Архив погоды >> Бангладеш >> Faridpur


ПОГОДА в Faridpur

  • Прогноз погоды в Faridpur
  • Монитор погоды в Faridpur
  • Климат города

АРХИВ ПОГОДЫ в Faridpur

Время (UTC), дата Ветер
(напр.,м/с)
 
Видим.   Явления Облачность Т
(С)
Тd
(С)
f
(%)
Тe
(С)
Тes
(С)
Комфортность P
(гПа)
Po
(гПа)
Тmin
(С)
Tmax
(С)
R
(мм)
R24
(мм)
S
(см)
03 8.08 Ю 2 6000 м 6/4 540 м
[Sc diur, vesp Ac lent]
+29.7 +25.0 76 +43 +48 опасность
перегрева
1002.1 1001.2 +26.4
06 8.08 Ю 2 6000 м в посл. час дождь 6/4 540 м
[Sc diur, vesp Ac lent]
+29.4 +25.0 77 +42 +52 опасность
перегрева
1002.0 1001.1
09 8.08 ЮВ 2 6000 м 8/4 540 м
[Sc diur, vesp Ac trans]
+32.2 +25.0 66 +46 +50 опасность
перегрева
1000.5 999.6
12 8.08 ЮВ 2 6000 м 8/4 540 м
[Sc diur, vesp Ac trans]
+31.0 +25.0 70 +44 +44 опасность
перегрева
999.9 999.0 +32.3
15 8.08 ЮВ 1 6000 м 4/0
[Ac lent]
+28.6 +27.0 91 +45 +45 опасность
перегрева
1002.3 1001.4
18 8.08 ЮВ 1 6000 м 4/0
[Ac lent]
+27.8 +27.0 95 +44 +44 опасность
перегрева
1003.3 1002.4
21 8.08 ЮВ 1 6000 м 4/0
[Ac lent]
+27.3 +26.0 93 +41 +41 опасность
перегрева
1003.2 1002.3
00 9.08 ЮВ 1 6000 м 5/3 540 м
[Sc diur, vesp Ac lent]
+26.8 +26.0 95 +40 +40 очень
душно
1002.9 1002.0
03 9.08 ЮВ 1 6000 м 4/4 540 м
[Sc diur, vesp]
+31.0 +26.0 75 +46 +55 опасность
перегрева
1004.8 1003.9 +26.1
06 9.08 ЮВ 1 6000 м 8/4 540 м
[Sc diur, vesp]
+33.2 +24.0 59 +45 +55 опасность
перегрева
1003.8 1002.9
09 9.08 ЮВ 2 7000 м 6/4 540 м
[Cb calv Ac lent]
+33.1 +26.0 66 +49 +54 опасность
перегрева
1001.5 1000.6
12 9.08 ЮВ 1 6000 м в посл. час дождь 8/4 540 м
[Sc diur, vesp Ac As]
+29.9 +28.0 90 +50 +50 опасность
перегрева
1001.1 1000.2 +33.5
15 9.08 ЮВ 1 6000 м 6/0
[Ac trans]
+28.5 +28.0 97 +47 +47 опасность
перегрева
1002.9 1002.0
18 9.08 штиль 0 6000 м 4/0
[Ac trans]
+28.2 +26.0 88 +42 +42 опасность
перегрева
1003.2 1002.3
21 9.08 штиль 0 6000 м 4/0
[Ac trans]
+27.8 +27.0 95 +44 +44 опасность
перегрева
1002.8 1001.9
00 10.08 штиль 0 6000 м 3/0
[Ac trans]
+27.3 +26.0 93 +41 +41 опасность
перегрева
1002.3 1001.4
03 10.08 В 1 6000 м 8/5 540 м
[Sc diur, vesp Ac As]
+30.5 +27.0 82 +48 +52 опасность
перегрева
1003.7 1002.8 +26.5
06 10.08 штиль 0 6000 м 4/4 540 м
[Sc diur, vesp Ac lent]
+33.0 +26.0 67 +49 +66 опасность
перегрева
1003.1 1002.2
09 10.08 Ю 1 6000 м 6/4 540 м
[Sc diur, vesp Ac lent]
+33.5 +27.0 69 +52 +58 опасность
перегрева
999.7 998.8
12 10.08 штиль 0 6000 м 5/3 540 м
[Sc diur, vesp Ac lent]
+31.2 +27.0 78 +49 +49 опасность
перегрева
999.1 998.2 +34.4
15 10.08 ЮВ 1 5000 м слабый дождь 6/4 540 м
[Sc diur, vesp Ac lent]
+28.8 +28.0 95 +47 +47 опасность
перегрева
1000.5 999.6
18 10.08 штиль 0 6000 м {дождь} 5/0
[Ac lent]
+28.8 +28.0 95 +47 +47 опасность
перегрева
1001.2 1000.3 4
21 10.08 штиль 0 6000 м 5/0
[Ac lent]
+28.3 +27.0 93 +45 +45 опасность
перегрева
1000.4 999.5
00 11.08 штиль 0 6000 м 5/3 540 м
[Sc Ac lent]
+27.8 +27.0 95 +44 +44 опасность
перегрева
999.7 998.8
03 11.08 штиль 0 6000 м 5/5 540 м
[Sc Ac lent]
+30.8 +27.0 80 +48 +56 опасность
перегрева
1001.1 1000.2 +27.1
06 11.08 ЮВ 1 6000 м 8/4 540 м
[Sc As trans]
+33.0 +26.0 67 +49 +58 опасность
перегрева
1000.6 999.7
09 11.08 Ю 1 6000 м 6/4 540 м
[Sc diur, vesp Ac trans]
+34.0 +25.0 59 +47 +54 опасность
перегрева
997.5 996.6
12 11.08 Ю 1 6000 м 9/4 540 м
[Sc Ac As]
+32.5 +27.0 73 +51 +51 опасность
перегрева
996.7 995.8 +34.2
15 11.08 штиль 0 6000 м {дождь} 4/0
[Ac lent]
+29.2 +27.0 88 +46 +46 опасность
перегрева
999.1 998.2 0.2
18 11.08 Ю 1 6000 м {дождь} 4/0
[Ac lent]
+28.8 +27.0 90 +45 +45 опасность
перегрева
999.2 998.3 0.2
21 11.08 штиль 0 6000 м 5/0
[Ac lent]
+28.3 +26.0 87 +42 +42 опасность
перегрева
998.5 997.6
00 12.08 штиль 0 6000 м 6/4 540 м
[Sc diur, vesp Ac lent]
+27.8 +27.0 95 +44 +44 опасность
перегрева
997.8 996.9
03 12.08 штиль 0 6000 м 6/4 540 м
[Sc diur, vesp Ac lent]
+30.5 +27.0 82 +48 +55 опасность
перегрева
998.8 997.9 +27.0
06 12.08 штиль 0 6000 м {дождь} 10/5 540 м
[Sc diur, vesp As trans]
+32.0 +27.0 75 +50 +56 опасность
перегрева
998.2 997.3
09 12.08 Ю 1 6000 м 8/4 540 м
[Sc diur, vesp Ac lent]
+32.9 +27.0 71 +51 +55 опасность
перегрева
996.2 995.3
12 12.08 Ю 1 6000 м 8/4 540 м
[Sc diur, vesp Ac lent]
+30.5 +26.0 77 +46 +46 опасность
перегрева
995.4 994.5 +33.0
15 12.08 ЮВ 1 6000 м 9/4 540 м
[Sc Ac As]
+29.5 +28.0 92 +49 +49 опасность
перегрева
998.2 997.3
18 12.08 штиль 0 6000 м 5/0
[Ac trans]
+28.3 +27.0 93 +45 +45 опасность
перегрева
998.7 997.8
21 12.08 штиль 0 6000 м 5/0
[Ac trans]
+27.9 +27.0 95 +44 +44 опасность
перегрева
998.1 997.2
00 13.08 штиль 0 6000 м 6/4 540 м
[Cb calv Ac trans]
+27.5 +27.0 97 +43 +43 опасность
перегрева
997.3 996.4
03 13.08 ЮВ 1 6000 м 8/5 540 м
[Sc Ac As]
+30.0 +27.0 84 +47 +51 опасность
перегрева
999.2 998.3 +26.7
03 14.08 В 1 6000 м {дождь} 8/4 540 м
[Sc diur, vesp As trans]
+29.6 +26.0 81 +44 +49 опасность
перегрева
998.7 997.8 +26.6
06 14.08 В 2 6000 м {дождь} 8/4 540 м
[Sc diur, vesp Ac lent]
+32.5 +26.0 69 +48 +55 опасность
перегрева
998.0 997.1 1
09 14.08 В 1 6000 м 6/4 540 м
[Sc diur, vesp Ac trans]
+34.2 +25.0 59 +48 +55 опасность
перегрева
995.7 994.8
12 14.08 ЮВ 1 6000 м 5/0
[Ac trans]
+32.5 +26.0 69 +48 +49 опасность
перегрева
995.0 994.1 +34.5
15 14.08 ЮВ 1 6000 м 5/3 540 м
[Cb calv Ac lent]
+29.8 +27.0 85 +47 +47 опасность
перегрева
997.9 997.0
18 14.08 Ю 2 6000 м зарница 8/4 540 м
[Cb calv As trans]
+29.3 +26.0 82 +44 +44 опасность
перегрева
999.0 998.1
00 15.08 ЮВ 2 6000 м 6/3 540 м
[Sc diur, vesp Ac lent]
+28.5 +27.0 92 +45 +45 опасность
перегрева
998.8 997.9

 

Местоположение метеостанции Faridpur (Бангладеш): широта 23.60 долгота 89.85 высота над уровнем моря 8 м.

В архиве по умолчанию представлена погода в Faridpur за последнюю неделю. Архивные данные за месяц целиком и за предыдущие месяцы, начиная с января 2011 года, Вы можете получить, выбрав интересующий диапазон дат из раскрывающегося списка и нажав кнопку "Ввод!".


*Определитесь, кто Вы:
робот инопланетянин человек

Внимание! Время в таблицах - всемирное. Для получения местного времени необходимо прибавить поправку, которая в Faridpur равна 6.5 ч.

Смотрите также архив погоды в соседних городах и на ближайших метеорологических станциях:

Погода в Dhaka (Бангладеш) (57 км)
Погода в Madaripur (Бангладеш) (59 км)
Погода в Gopalganj Sadar (Бангладеш) (66 км)
Погода в Kumarkhali (Бангладеш) (72 км)
Погода в Tangail (Бангладеш) (73 км)
Погода в Jessore (Бангладеш) (84 км)
Погода в Chandpur (Бангладеш) (94 км)
Погода в Tarash (Бангладеш) (97 км)
Погода в Khulna (Бангладеш) (97 км)
Погода в Ishurdi (Бангладеш) (100 км)

Пояснения к столбцам:

Ветер - указаны скорость ветра в м/с - средняя за 10 мин, порывы в срок и между сроками (в фигурных скобках) и направление, откуда дует ветер: С - северный, СВ - северо-восточный, В - восточный, ЮВ - юго-восточный, Ю - южный, ЮЗ - юго-западный, З - западный, СЗ - северо-западный.
Видимость - горизонтальная дальность видимости в метрах или километрах. При видимости от 1 до 10 км при отсутствии осадков обычно наблюдается дымка, при ухудшении видимости до 1 км и менее - туман. В сухую погоду видимость может ухудшаться дымом, пылью или мглою.
Явления - указаны атмосферные явления, наблюдавшиеся в срок или в последний час перед сроком; фигурными скобками обозначены явления, наблюдавшиеся между сроками (за 1-3 часа до срока); квадратными скобками обозначены град или гололедные отложения с указанием их диаметра в мм.
Облачность - указаны через наклонную черту общая и нижняя облачность в баллах и высота нижней границы облаков в метрах; квадратными скобками обозначены формы облаков: Ci - перистые, Cs - перисто-слоистые, Cc - перисто-кучевые, Ac - высококучевые, As - высокослоистые, Sc - слоисто-кучевые, Ns - слоисто-дождевые, Cu - кучевые, Cb - кучево-дождевые. Подробнее классификацию облаков см. в Атласе облаков (PDF).
T - Температура воздуха - температура, измеренная на высоте 2 м над землей.
Td - Температура точки росы - температура, при понижении до которой содержащийся в воздухе водяной пар достигнет насыщения.
f - Относительная влажность воздуха - влажноcть воздуха, измеренная на высоте 2 м над землей.
Te - Эффективная температура - температура, которую ощущает одетый по сезону человек в тени. Характеристика душности погоды. При расчете учитывается влияние влажности воздуха и скорости ветра на теплоощущения человека.
Tes - Эффективная температура на солнце - температура, которую ощущает человек, с поправкой на солнечный нагрев. Характеристика знойности погоды. Зависит от высоты солнца над горизонтом, облачности и скорости ветра. Ночью, в пасмурную погоду, а также при ветре 12 м/с и более поправка равна нулю.
P - Атмосферное давление - приведенное к уровню моря атмосферное давление.
Po - Атмосферное давление - измеренное на уровне метеостанции атмосферное давление.
Tmin - Минимальная температура - минимум температуры воздуха на высоте 2 м над землей.
Tmax - Максимальная температура - максимум температуры воздуха на высоте 2 м над землей.
R - Количество осадков - Количество выпавших осадков за период времени, мм. При наведении курсора мыши на число - период времени, за который выпало указанное количество осадков.
R24 - Количество осадков - Количество выпавших осадков за 24 часа, мм.
S - Снежный покров - Высота снежного покрова, см. При наведении курсора мыши на число - состояние снежного покрова и степень покрытия местности в баллах.